| time (UTC) | temp F | wind direction | speed knots | gust knots | rain 1hr in | rain 24hr in | rain mn in | humidity % | barometer mb |
| 20260509151301 | 53 | 130 | 0.0 | 1.7 | 0.00 | 0.00 | 0.00 | 89 | 1023.8 |
| 20260509150802 | 53 | 119 | 0.0 | 0.9 | 0.00 | 0.00 | 0.00 | 89 | 1023.8 |
| 20260509150258 | 53 | 119 | 0.0 | 1.7 | 0.00 | 0.00 | 0.00 | 89 | 1024.0 |
| 20260509145756 | 53 | 119 | 0.0 | 1.7 | 0.00 | 0.00 | 0.00 | 89 | 1023.9 |
| 20260509145251 | 53 | 119 | 0.0 | 0.9 | 0.00 | 0.00 | 0.00 | 89 | 1024.0 |
| 20260509145009 | 53 | 119 | 0.0 | 0.9 | 0.00 | 0.00 | 0.00 | 89 | 1024.0 |
| 20260509144511 | 53 | 119 | 0.0 | 0.9 | 0.00 | 0.00 | 0.00 | 89 | 1024.0 |
| 20260509143957 | 53 | 119 | 0.0 | 0.9 | 0.00 | 0.00 | 0.00 | 89 | 1024.0 |
| 20260509143208 | 53 | 119 | 0.0 | 0.9 | 0.00 | 0.00 | 0.00 | 88 | 1023.9 |
| 20260509142706 | 53 | 119 | 0.0 | 0.9 | 0.00 | 0.00 | 0.00 | 88 | 1024.0 |
| 20260509142206 | 53 | 119 | 0.0 | 0.9 | 0.00 | 0.00 | 0.00 | 88 | 1024.0 |
| 20260509141713 | 53 | 119 | 0.0 | 0.9 | 0.00 | 0.00 | 0.00 | 88 | 1024.1 |
| 20260509141418 | 53 | 119 | 0.0 | 0.9 | 0.00 | 0.00 | 0.00 | 88 | 1024.1 |
| 20260509140706 | 53 | 119 | 0.0 | 0.9 | 0.00 | 0.00 | 0.00 | 88 | 1024.1 |
| 20260509140204 | 53 | 119 | 0.0 | 0.9 | 0.00 | 0.00 | 0.00 | 88 | 1024.0 |
| 20260509135704 | 53 | 119 | 0.0 | 0.9 | 0.00 | 0.00 | 0.00 | 88 | 1024.1 |
| 20260509135158 | 53 | 119 | 0.0 | 0.9 | 0.00 | 0.00 | 0.00 | 88 | 1024.1 |
| 20260509134639 | 54 | 119 | 0.0 | 0.9 | 0.00 | 0.00 | 0.00 | 88 | 1024.1 |
| 20260509134145 | 54 | 119 | 0.0 | 1.7 | 0.00 | 0.00 | 0.00 | 87 | 1024.1 |
| 20260509133612 | 54 | 119 | 0.0 | 1.7 | 0.00 | 0.00 | 0.00 | 87 | 1024.1 |
| 20260509133358 | 54 | 119 | 0.0 | 0.9 | 0.00 | 0.00 | 0.00 | 87 | 1024.1 |
| 20260509132600 | 54 | 119 | 0.0 | 0.9 | 0.00 | 0.00 | 0.00 | 87 | 1024.1 |
| 20260509132058 | 54 | 119 | 0.0 | 0.0 | 0.00 | 0.00 | 0.00 | 87 | 1024.1 |
| 20260509131559 | 54 | 119 | 0.0 | 1.7 | 0.00 | 0.00 | 0.00 | 87 | 1024.1 |
| 20260509131104 | 54 | 119 | 0.0 | 1.7 | 0.00 | 0.00 | 0.00 | 87 | 1024.1 |
| 20260509130554 | 54 | 119 | 0.0 | 1.7 | 0.00 | 0.00 | 0.00 | 87 | 1024.0 |
| 20260509130321 | 55 | 119 | 0.0 | 1.7 | 0.00 | 0.00 | 0.00 | 87 | 1024.1 |
| 20260509125546 | 55 | 119 | 0.0 | 0.9 | 0.00 | 0.00 | 0.00 | 86 | 1024.1 |
| 20260509125048 | 55 | 119 | 0.0 | 0.9 | 0.00 | 0.00 | 0.00 | 86 | 1024.1 |
| 20260509124544 | 55 | 119 | 0.0 | 0.9 | 0.00 | 0.00 | 0.00 | 86 | 1024.0 |
| 20260509124036 | 55 | 119 | 0.0 | 0.9 | 0.00 | 0.00 | 0.00 | 86 | 1024.1 |
| 20260509123533 | 55 | 119 | 0.0 | 0.9 | 0.00 | 0.00 | 0.00 | 86 | 1024.0 |
| 20260509123029 | 55 | 119 | 0.0 | 0.9 | 0.00 | 0.00 | 0.00 | 86 | 1024.1 |
| 20260509122530 | 56 | 119 | 0.0 | 0.9 | 0.00 | 0.00 | 0.00 | 85 | 1024.1 |
| 20260509122254 | 56 | 119 | 0.0 | 0.9 | 0.00 | 0.00 | 0.00 | 85 | 1024.1 |
| 20260509121757 | 56 | 119 | 0.0 | 0.0 | 0.00 | 0.00 | 0.00 | 85 | 1024.1 |
| 20260509121258 | 56 | 119 | 0.0 | 0.0 | 0.00 | 0.00 | 0.00 | 85 | 1024.1 |
| 20260509120745 | 56 | 119 | 0.0 | 0.0 | 0.00 | 0.00 | 0.00 | 85 | 1024.1 |
| 20260509120040 | 56 | 119 | 0.0 | 0.0 | 0.00 | 0.00 | 0.00 | 85 | 1024.1 |
| 20260509115519 | 56 | 119 | 0.0 | 0.0 | 0.00 | 0.00 | 0.00 | 85 | 1024.1 |
| 20260509115234 | 56 | 119 | 0.0 | 0.9 | 0.00 | 0.00 | 0.00 | 85 | 1024.1 |
| 20260509114511 | 56 | 119 | 0.0 | 0.9 | 0.00 | 0.00 | 0.00 | 85 | 1024.0 |
| 20260509114010 | 57 | 119 | 0.0 | 0.9 | 0.00 | 0.00 | 0.00 | 85 | 1024.1 |
| 20260509113505 | 57 | 119 | 0.0 | 0.9 | 0.00 | 0.00 | 0.00 | 85 | 1024.1 |
| 20260509112955 | 57 | 119 | 0.0 | 0.0 | 0.00 | 0.00 | 0.00 | 84 | 1024.1 |
| 20260509112457 | 57 | 119 | 0.0 | 0.9 | 0.00 | 0.00 | 0.00 | 84 | 1024.1 |
| 20260509112437 | 57 | 119 | 0.0 | 0.9 | 0.00 | 0.00 | 0.00 | 84 | 1024.2 |
| 20260509111450 | 57 | 119 | 0.0 | 0.0 | 0.00 | 0.00 | 0.00 | 84 | 1024.2 |
| 20260509110950 | 57 | 119 | 0.0 | 0.9 | 0.00 | 0.00 | 0.00 | 84 | 1024.2 |
| 20260509110457 | 57 | 119 | 0.0 | 0.9 | 0.00 | 0.00 | 0.00 | 84 | 1024.1 |
| 20260509110000 | 57 | 119 | 0.0 | 0.0 | 0.00 | 0.00 | 0.00 | 84 | 1024.0 |
| 20260509105501 | 58 | 119 | 0.0 | 0.0 | 0.00 | 0.00 | 0.00 | 84 | 1024.1 |
| 20260509105213 | 58 | 119 | 0.0 | 0.9 | 0.00 | 0.00 | 0.00 | 83 | 1024.0 |
| 20260509104450 | 58 | 119 | 0.0 | 0.9 | 0.00 | 0.00 | 0.00 | 83 | 1024.0 |
| 20260509103941 | 58 | 119 | 0.0 | 0.9 | 0.00 | 0.00 | 0.00 | 83 | 1024.0 |
| 20260509103443 | 58 | 119 | 0.0 | 0.9 | 0.00 | 0.00 | 0.00 | 82 | 1024.0 |
| 20260509102949 | 58 | 119 | 0.0 | 0.9 | 0.00 | 0.00 | 0.00 | 82 | 1024.0 |
| 20260509102437 | 58 | 119 | 0.0 | 0.0 | 0.00 | 0.00 | 0.00 | 81 | 1024.0 |
| 20260509101934 | 59 | 119 | 0.0 | 0.0 | 0.00 | 0.00 | 0.00 | 81 | 1024.0 |
| 20260509101421 | 59 | 119 | 0.0 | 0.9 | 0.00 | 0.00 | 0.00 | 81 | 1024.0 |
| 20260509101143 | 59 | 119 | 0.0 | 0.9 | 0.00 | 0.00 | 0.00 | 81 | 1023.9 |
| 20260509100425 | 59 | 119 | 0.0 | 0.9 | 0.00 | 0.00 | 0.00 | 80 | 1023.9 |
| 20260509095924 | 60 | 119 | 0.0 | 0.9 | 0.00 | 0.00 | 0.00 | 80 | 1023.9 |
| 20260509095430 | 60 | 119 | 0.0 | 0.9 | 0.00 | 0.00 | 0.00 | 80 | 1023.8 |
| 20260509094909 | 60 | 119 | 0.0 | 0.9 | 0.00 | 0.00 | 0.00 | 80 | 1023.8 |
| 20260509094408 | 60 | 119 | 0.0 | 0.9 | 0.00 | 0.00 | 0.00 | 79 | 1023.6 |
| 20260509093907 | 60 | 119 | 0.9 | 0.9 | 0.00 | 0.00 | 0.00 | 79 | 1023.6 |
| 20260509093410 | 61 | 119 | 0.9 | 0.9 | 0.00 | 0.00 | 0.00 | 78 | 1023.6 |
| 20260509092838 | 61 | 119 | 0.0 | 0.9 | 0.00 | 0.00 | 0.00 | 77 | 1023.5 |
| 20260509092358 | 62 | 119 | 0.0 | 0.9 | 0.00 | 0.00 | 0.00 | 76 | 1023.5 |
| 20260509091833 | 62 | 119 | 0.0 | 0.9 | 0.00 | 0.00 | 0.00 | 75 | 1023.5 |
| 20260509091545 | 62 | 119 | 0.0 | 0.9 | 0.00 | 0.00 | 0.00 | 75 | 1023.5 |
| 20260509091052 | 62 | 119 | 0.0 | 0.9 | 0.00 | 0.00 | 0.00 | 75 | 1023.4 |
| 20260509090322 | 62 | 119 | 0.9 | 0.9 | 0.00 | 0.00 | 0.00 | 74 | 1023.3 |
| 20260509090300 | 63 | 119 | 0.0 | 0.9 | 0.00 | 0.00 | 0.00 | 74 | 1023.3 |
| 20260509085318 | 63 | 119 | 0.0 | 0.9 | 0.00 | 0.00 | 0.00 | 73 | 1023.2 |
| 20260509084824 | 63 | 119 | 0.0 | 0.9 | 0.00 | 0.00 | 0.00 | 73 | 1023.2 |
| 20260509084311 | 64 | 119 | 0.0 | 0.9 | 0.00 | 0.00 | 0.00 | 72 | 1023.1 |
| 20260509083803 | 64 | 119 | 0.0 | 0.9 | 0.00 | 0.00 | 0.00 | 72 | 1023.1 |
| 20260509083311 | 64 | 119 | 0.0 | 0.9 | 0.00 | 0.00 | 0.00 | 71 | 1023.0 |
| 20260509082756 | 65 | 119 | 0.0 | 0.9 | 0.00 | 0.00 | 0.00 | 70 | 1023.0 |
| 20260509082257 | 65 | 119 | 0.0 | 0.9 | 0.00 | 0.00 | 0.00 | 69 | 1022.9 |
| 20260509081755 | 65 | 119 | 0.0 | 0.9 | 0.00 | 0.00 | 0.00 | 68 | 1022.9 |
| 20260509081318 | 66 | 119 | 0.0 | 0.9 | 0.00 | 0.00 | 0.00 | 68 | 1022.8 |
| 20260509080748 | 66 | 119 | 0.0 | 0.0 | 0.00 | 0.00 | 0.00 | 67 | 1022.7 |
| 20260509080302 | 67 | 119 | 0.0 | 0.0 | 0.00 | 0.00 | 0.00 | 67 | 1022.7 |
| 20260509075741 | 67 | 119 | 0.0 | 0.0 | 0.00 | 0.00 | 0.00 | 66 | 1022.7 |
| 20260509075214 | 67 | 119 | 0.0 | 0.0 | 0.00 | 0.00 | 0.00 | 64 | 1022.6 |
| 20260509074648 | 68 | 119 | 0.0 | 0.0 | 0.00 | 0.00 | 0.00 | 63 | 1022.5 |
| 20260509074148 | 68 | 119 | 0.0 | 0.0 | 0.00 | 0.00 | 0.00 | 63 | 1022.4 |
| 20260509073649 | 69 | 119 | 0.0 | 0.0 | 0.00 | 0.00 | 0.00 | 62 | 1022.4 |
| 20260509073418 | 69 | 119 | 0.0 | 0.0 | 0.00 | 0.00 | 0.00 | 62 | 1022.4 |
| 20260509072703 | 69 | 119 | 0.0 | 0.9 | 0.00 | 0.00 | 0.00 | 61 | 1022.3 |
| 20260509072121 | 69 | 119 | 0.0 | 0.9 | 0.00 | 0.00 | 0.00 | 60 | 1022.3 |
| 20260509071556 | 70 | 119 | 0.0 | 0.9 | 0.00 | 0.00 | 0.00 | 60 | 1022.2 |
| 20260509071103 | 70 | 119 | 0.0 | 0.9 | 0.00 | 0.00 | 0.00 | 60 | 1022.2 |
| 20260509070534 | 70 | 119 | 0.0 | 1.7 | 0.00 | 0.00 | 0.00 | 60 | 1022.2 |
| 20260509070323 | 71 | 119 | 0.0 | 1.7 | 0.00 | 0.00 | 0.00 | 59 | 1022.1 |
| 20260509065513 | 71 | 119 | 0.9 | 3.5 | 0.00 | 0.00 | 0.00 | 59 | 1022.0 |
| 20260509065444 | 71 | 119 | 0.9 | 3.5 | 0.00 | 0.00 | 0.00 | 58 | 1021.9 |
| 20260509064509 | 71 | 119 | 0.9 | 3.5 | 0.00 | 0.00 | 0.00 | 57 | 1021.8 |
| 20260509064215 | 72 | 119 | 1.7 | 4.3 | 0.00 | 0.00 | 0.00 | 55 | 1021.8 |
| 20260509063452 | 72 | 114 | 2.6 | 4.3 | 0.00 | 0.00 | 0.00 | 54 | 1021.8 |
| 20260509062948 | 73 | 114 | 2.6 | 4.3 | 0.00 | 0.00 | 0.00 | 52 | 1021.7 |
| 20260509062438 | 73 | 124 | 1.7 | 6.1 | 0.00 | 0.00 | 0.00 | 50 | 1021.6 |
| 20260509061936 | 73 | 126 | 1.7 | 6.1 | 0.00 | 0.00 | 0.00 | 50 | 1021.6 |
| 20260509061436 | 73 | 96 | 1.7 | 6.1 | 0.00 | 0.00 | 0.00 | 50 | 1021.6 |
| 20260509060936 | 74 | 108 | 2.6 | 7.8 | 0.00 | 0.00 | 0.00 | 50 | 1021.6 |
| 20260509060435 | 74 | 122 | 3.5 | 7.8 | 0.00 | 0.00 | 0.00 | 49 | 1021.5 |
| 20260509055946 | 74 | 126 | 3.5 | 7.8 | 0.00 | 0.00 | 0.00 | 48 | 1021.6 |
| 20260509055427 | 74 | 116 | 3.5 | 7.8 | 0.00 | 0.00 | 0.00 | 47 | 1021.4 |
| 20260509055132 | 75 | 120 | 3.5 | 7.8 | 0.00 | 0.00 | 0.00 | 47 | 1021.4 |
| 20260509054420 | 75 | 123 | 3.5 | 7.0 | 0.00 | 0.00 | 0.00 | 46 | 1021.4 |
| 20260509053851 | 75 | 150 | 3.5 | 7.0 | 0.00 | 0.00 | 0.00 | 45 | 1021.4 |
| 20260509053359 | 75 | 123 | 2.6 | 7.0 | 0.00 | 0.00 | 0.00 | 45 | 1021.4 |
| 20260509052830 | 75 | 117 | 1.7 | 7.0 | 0.00 | 0.00 | 0.00 | 47 | 1021.3 |
| 20260509052319 | 75 | 114 | 2.6 | 7.0 | 0.00 | 0.00 | 0.00 | 47 | 1021.3 |
| 20260509051818 | 75 | 120 | 2.6 | 7.0 | 0.00 | 0.00 | 0.00 | 46 | 1021.4 |
| 20260509051526 | 75 | 126 | 2.6 | 7.0 | 0.00 | 0.00 | 0.00 | 46 | 1021.3 |
| 20260509050800 | 76 | 118 | 3.5 | 7.8 | 0.00 | 0.00 | 0.00 | 46 | 1021.3 |
| 20260509050731 | 76 | 124 | 2.6 | 7.8 | 0.00 | 0.00 | 0.00 | 47 | 1021.2 |
| 20260509050354 | 76 | 106 | 2.6 | 7.8 | 0.00 | 0.00 | 0.00 | 46 | 1021.3 |
| 20260509045259 | 76 | 112 | 2.6 | 7.8 | 0.00 | 0.00 | 0.00 | 46 | 1021.2 |
| 20260509044739 | 76 | 121 | 2.6 | 7.8 | 0.00 | 0.00 | 0.00 | 45 | 1021.2 |
| 20260509044249 | 76 | 116 | 3.5 | 7.8 | 0.00 | 0.00 | 0.00 | 46 | 1021.3 |
| 20260509043709 | 77 | 120 | 2.6 | 7.0 | 0.00 | 0.00 | 0.00 | 46 | 1021.3 |
| 20260509043156 | 77 | 106 | 1.7 | 7.0 | 0.00 | 0.00 | 0.00 | 46 | 1021.3 |
| 20260509042656 | 77 | 180 | 2.6 | 8.7 | 0.00 | 0.00 | 0.00 | 47 | 1021.3 |
| 20260509042144 | 77 | 124 | 2.6 | 8.7 | 0.00 | 0.00 | 0.00 | 46 | 1021.3 |
| 20260509041845 | 77 | 127 | 2.6 | 7.8 | 0.00 | 0.00 | 0.00 | 47 | 1021.3 |
| 20260509041110 | 77 | 116 | 2.6 | 7.8 | 0.00 | 0.00 | 0.00 | 47 | 1021.2 |
| 20260509040820 | 76 | 142 | 3.5 | 8.7 | 0.00 | 0.00 | 0.00 | 47 | 1021.2 |
| 20260509040115 | 77 | 128 | 2.6 | 8.7 | 0.00 | 0.00 | 0.00 | 47 | 1021.2 |
| 20260509035553 | 76 | 116 | 3.5 | 10.4 | 0.00 | 0.00 | 0.00 | 47 | 1021.3 |
| 20260509035107 | 77 | 122 | 2.6 | 10.4 | 0.00 | 0.00 | 0.00 | 47 | 1021.3 |
| 20260509034548 | 76 | 111 | 2.6 | 9.6 | 0.00 | 0.00 | 0.00 | 47 | 1021.3 |
| 20260509034103 | 76 | 107 | 3.5 | 9.6 | 0.00 | 0.00 | 0.00 | 47 | 1021.3 |
| 20260509033557 | 76 | 110 | 3.5 | 8.7 | 0.00 | 0.00 | 0.00 | 47 | 1021.3 |
| 20260509033037 | 76 | 123 | 3.5 | 7.8 | 0.00 | 0.00 | 0.00 | 47 | 1021.4 |
| 20260509032536 | 76 | 122 | 3.5 | 7.8 | 0.00 | 0.00 | 0.00 | 47 | 1021.4 |
| 20260509032044 | 77 | 106 | 2.6 | 9.6 | 0.00 | 0.00 | 0.00 | 47 | 1021.4 |
| 20260509031527 | 77 | 111 | 2.6 | 9.6 | 0.00 | 0.00 | 0.00 | 48 | 1021.4 |
| 20260509031029 | 76 | 227 | 2.6 | 12.2 | 0.00 | 0.00 | 0.00 | 46 | 1021.4 |
| 20260509030743 | 76 | 156 | 3.5 | 12.2 | 0.00 | 0.00 | 0.00 | 47 | 1021.5 |
| 20260509030033 | 76 | 166 | 3.5 | 8.7 | 0.00 | 0.00 | 0.00 | 47 | 1021.5 |
| 20260509025502 | 76 | 162 | 3.5 | 8.7 | 0.00 | 0.00 | 0.00 | 48 | 1021.6 |
| 20260509024947 | 76 | 123 | 2.6 | 8.7 | 0.00 | 0.00 | 0.00 | 48 | 1021.6 |
| 20260509024721 | 76 | 114 | 2.6 | 8.7 | 0.00 | 0.00 | 0.00 | 48 | 1021.7 |
| 20260509023949 | 76 | 126 | 3.5 | 10.4 | 0.00 | 0.00 | 0.00 | 49 | 1021.7 |
| 20260509023442 | 76 | 110 | 3.5 | 10.4 | 0.00 | 0.00 | 0.00 | 48 | 1021.9 |
| 20260509022928 | 76 | 116 | 3.5 | 7.0 | 0.00 | 0.00 | 0.00 | 49 | 1021.9 |
| 20260509022428 | 76 | 115 | 2.6 | 7.0 | 0.00 | 0.00 | 0.00 | 49 | 1022.0 |
| 20260509021911 | 76 | 99 | 2.6 | 7.0 | 0.00 | 0.00 | 0.00 | 50 | 1022.0 |
| 20260509021336 | 76 | 122 | 3.5 | 7.8 | 0.00 | 0.00 | 0.00 | 50 | 1022.1 |
| 20260509020830 | 75 | 212 | 3.5 | 7.8 | 0.00 | 0.00 | 0.00 | 51 | 1022.2 |
| 20260509020550 | 75 | 163 | 2.6 | 7.8 | 0.00 | 0.00 | 0.00 | 52 | 1022.2 |
| 20260509015829 | 75 | 145 | 2.6 | 7.0 | 0.00 | 0.00 | 0.00 | 52 | 1022.3 |
| 20260509015315 | 74 | 135 | 2.6 | 7.0 | 0.00 | 0.00 | 0.00 | 53 | 1022.4 |
| 20260509014813 | 74 | 116 | 2.6 | 6.1 | 0.00 | 0.00 | 0.00 | 53 | 1022.4 |
| 20260509014327 | 73 | 134 | 1.7 | 4.3 | 0.00 | 0.00 | 0.00 | 55 | 1022.5 |
| 20260509013810 | 73 | 208 | 1.7 | 5.2 | 0.00 | 0.00 | 0.00 | 55 | 1022.6 |
| 20260509013320 | 73 | 189 | 2.6 | 5.2 | 0.00 | 0.00 | 0.00 | 55 | 1022.7 |
| 20260509012812 | 72 | 202 | 2.6 | 5.2 | 0.00 | 0.00 | 0.00 | 55 | 1022.7 |
| 20260509012309 | 72 | 180 | 2.6 | 6.1 | 0.00 | 0.00 | 0.00 | 55 | 1022.9 |
| 20260509011809 | 72 | 165 | 2.6 | 7.0 | 0.00 | 0.00 | 0.00 | 54 | 1022.9 |
| 20260509011538 | 72 | 175 | 2.6 | 7.0 | 0.00 | 0.00 | 0.00 | 54 | 1023.0 |
| 20260509010757 | 72 | 195 | 2.6 | 7.8 | 0.00 | 0.00 | 0.00 | 54 | 1023.1 |
| 20260509010302 | 72 | 108 | 2.6 | 7.8 | 0.00 | 0.00 | 0.00 | 55 | 1023.1 |
| 20260509005800 | 72 | 99 | 2.6 | 7.0 | 0.00 | 0.00 | 0.00 | 54 | 1023.1 |
| 20260509005300 | 72 | 159 | 1.7 | 7.0 | 0.00 | 0.00 | 0.00 | 54 | 1023.1 |
| 20260509005031 | 72 | 185 | 1.7 | 4.3 | 0.00 | 0.00 | 0.00 | 53 | 1023.2 |
| 20260509004521 | 72 | 161 | 1.7 | 4.3 | 0.00 | 0.00 | 0.00 | 53 | 1023.2 |
| 20260509003805 | 72 | 195 | 2.6 | 7.0 | 0.00 | 0.00 | 0.00 | 54 | 1023.3 |
| 20260509003253 | 71 | 175 | 3.5 | 7.8 | 0.00 | 0.00 | 0.00 | 53 | 1023.3 |
| 20260509002750 | 71 | 93 | 1.7 | 7.8 | 0.00 | 0.00 | 0.00 | 53 | 1023.3 |
| 20260509002250 | 71 | 192 | 1.7 | 7.0 | 0.00 | 0.00 | 0.00 | 55 | 1023.3 |
| 20260509001750 | 71 | 255 | 1.7 | 4.3 | 0.00 | 0.00 | 0.00 | 55 | 1023.3 |
| 20260509001252 | 71 | 215 | 1.7 | 4.3 | 0.00 | 0.00 | 0.00 | 58 | 1023.4 |
| 20260509000730 | 70 | 122 | 2.6 | 4.3 | 0.00 | 0.00 | 0.00 | 58 | 1023.4 |
| 20260509000223 | 70 | 236 | 2.6 | 5.2 | 0.00 | 0.00 | 0.00 | 59 | 1023.3 |
| 20260508235658 | 69 | 185 | 2.6 | 5.2 | 0.00 | 0.00 | 0.00 | 59 | 1023.3 |
| 20260508235204 | 69 | 246 | 1.7 | 5.2 | 0.00 | 0.00 | 0.00 | 61 | 1023.4 |
| 20260508234648 | 68 | 196 | 1.7 | 3.5 | 0.00 | 0.00 | 0.00 | 64 | 1023.4 |
| 20260508234136 | 67 | 157 | 1.7 | 3.5 | 0.00 | 0.00 | 0.00 | 63 | 1023.4 |
| 20260508233609 | 66 | 203 | 1.7 | 3.5 | 0.00 | 0.00 | 0.00 | 64 | 1023.4 |
| 20260508233109 | 65 | 202 | 1.7 | 3.5 | 0.00 | 0.00 | 0.00 | 66 | 1023.4 |
| 20260508232617 | 64 | 238 | 1.7 | 3.5 | 0.00 | 0.00 | 0.00 | 67 | 1023.3 |
| 20260508232105 | 64 | 238 | 1.7 | 4.3 | 0.00 | 0.00 | 0.00 | 67 | 1023.3 |
| 20260508231749 | 63 | 245 | 1.7 | 4.3 | 0.00 | 0.00 | 0.00 | 68 | 1023.2 |
| 20260508231006 | 62 | 199 | 1.7 | 3.5 | 0.00 | 0.00 | 0.00 | 68 | 1023.2 |
| 20260508230509 | 61 | 246 | 1.7 | 7.0 | 0.00 | 0.00 | 0.00 | 69 | 1023.1 |
| 20260508230008 | 60 | 249 | 2.6 | 7.0 | 0.00 | 0.00 | 0.00 | 69 | 1023.1 |
| 20260508225502 | 60 | 211 | 2.6 | 7.8 | 0.00 | 0.00 | 0.00 | 69 | 1023.1 |
| 20260508224953 | 59 | 206 | 2.6 | 7.8 | 0.00 | 0.00 | 0.00 | 69 | 1023.0 |
| 20260508224503 | 59 | 213 | 1.7 | 4.3 | 0.00 | 0.00 | 0.00 | 70 | 1022.9 |
| 20260508223953 | 58 | 243 | 0.9 | 5.2 | 0.00 | 0.00 | 0.00 | 70 | 1022.9 |
| 20260508223505 | 58 | 189 | 1.7 | 5.2 | 0.00 | 0.00 | 0.00 | 70 | 1022.9 |
| 20260508223007 | 58 | 234 | 1.7 | 4.3 | 0.00 | 0.00 | 0.00 | 70 | 1022.8 |
| 20260508222449 | 58 | 230 | 1.7 | 4.3 | 0.00 | 0.00 | 0.00 | 71 | 1022.7 |
| 20260508221948 | 57 | 235 | 1.7 | 4.3 | 0.00 | 0.00 | 0.00 | 72 | 1022.7 |
| 20260508221442 | 57 | 227 | 1.7 | 4.3 | 0.00 | 0.00 | 0.00 | 72 | 1022.6 |
| 20260508220947 | 56 | 227 | 1.7 | 4.3 | 0.00 | 0.00 | 0.00 | 73 | 1022.6 |
| 20260508220444 | 55 | 230 | 1.7 | 3.5 | 0.00 | 0.00 | 0.00 | 74 | 1022.6 |
| 20260508220440 | 56 | 222 | 1.7 | 4.3 | 0.00 | 0.00 | 0.00 | 73 | 1022.6 |
| 20260508215439 | 55 | 228 | 1.7 | 4.3 | 0.00 | 0.00 | 0.00 | 74 | 1022.4 |
| 20260508215205 | 54 | 200 | 1.7 | 4.3 | 0.00 | 0.00 | 0.00 | 75 | 1022.5 |
| 20260508214437 | 54 | 227 | 0.9 | 3.5 | 0.00 | 0.00 | 0.00 | 75 | 1022.3 |
| 20260508214159 | 53 | 212 | 0.9 | 3.5 | 0.00 | 0.00 | 0.00 | 76 | 1022.2 |
| 20260508213440 | 53 | 250 | 0.9 | 4.3 | 0.00 | 0.00 | 0.00 | 77 | 1022.2 |
| 20260508213203 | 52 | 237 | 0.9 | 4.3 | 0.00 | 0.00 | 0.00 | 77 | 1022.1 |
| 20260508212433 | 52 | 235 | 0.9 | 2.6 | 0.00 | 0.00 | 0.00 | 77 | 1022.1 |
| 20260508211935 | 51 | 235 | 0.9 | 2.6 | 0.00 | 0.00 | 0.00 | 77 | 1022.0 |
| 20260508211431 | 51 | 235 | 0.9 | 3.5 | 0.00 | 0.00 | 0.00 | 77 | 1021.9 |
| 20260508210931 | 51 | 235 | 0.9 | 3.5 | 0.00 | 0.00 | 0.00 | 77 | 1022.0 |
| 20260508210429 | 50 | 263 | 0.9 | 3.5 | 0.00 | 0.00 | 0.00 | 77 | 1022.0 |
| 20260508205921 | 50 | 263 | 0.9 | 3.5 | 0.00 | 0.00 | 0.00 | 77 | 1021.9 |
| 20260508205642 | 50 | 263 | 1.7 | 3.5 | 0.00 | 0.00 | 0.00 | 77 | 1021.8 |
| 20260508204917 | 50 | 233 | 0.9 | 3.5 | 0.00 | 0.00 | 0.00 | 77 | 1021.7 |
| 20260508204419 | 50 | 233 | 0.9 | 3.5 | 0.00 | 0.00 | 0.00 | 77 | 1021.6 |
| 20260508203913 | 50 | 233 | 0.9 | 3.5 | 0.00 | 0.00 | 0.00 | 77 | 1021.5 |
| 20260508203413 | 50 | 233 | 0.9 | 3.5 | 0.00 | 0.00 | 0.00 | 77 | 1021.6 |
| 20260508202911 | 49 | 233 | 0.9 | 3.5 | 0.00 | 0.00 | 0.00 | 77 | 1021.6 |
| 20260508202638 | 49 | 233 | 0.9 | 3.5 | 0.00 | 0.00 | 0.00 | 77 | 1021.5 |
| 20260508201906 | 49 | 233 | 0.0 | 1.7 | 0.00 | 0.00 | 0.00 | 78 | 1021.5 |
| 20260508201405 | 49 | 234 | 0.9 | 3.5 | 0.00 | 0.00 | 0.00 | 78 | 1021.4 |
| 20260508200902 | 49 | 234 | 0.9 | 3.5 | 0.00 | 0.00 | 0.00 | 78 | 1021.4 |
| 20260508200401 | 49 | 234 | 0.9 | 1.7 | 0.00 | 0.00 | 0.00 | 78 | 1021.3 |
| 20260508195901 | 49 | 234 | 0.9 | 1.7 | 0.00 | 0.00 | 0.00 | 78 | 1021.2 |
| 20260508195355 | 49 | 234 | 0.0 | 2.6 | 0.00 | 0.00 | 0.00 | 79 | 1021.1 |
| 20260508194854 | 49 | 234 | 0.9 | 2.6 | 0.00 | 0.00 | 0.00 | 79 | 1021.0 |
| 20260508194359 | 49 | 234 | 0.9 | 2.6 | 0.00 | 0.00 | 0.00 | 78 | 1021.0 |
| 20260508193854 | 49 | 234 | 0.9 | 3.5 | 0.00 | 0.00 | 0.00 | 79 | 1020.9 |
| 20260508193616 | 49 | 234 | 0.0 | 3.5 | 0.00 | 0.00 | 0.00 | 79 | 1020.9 |
| 20260508192854 | 49 | 234 | 0.0 | 1.7 | 0.00 | 0.00 | 0.00 | 80 | 1020.9 |
| 20260508192350 | 49 | 234 | 0.0 | 1.7 | 0.00 | 0.00 | 0.00 | 80 | 1020.7 |
| 20260508191850 | 49 | 234 | 0.0 | 1.7 | 0.00 | 0.00 | 0.00 | 80 | 1020.6 |
| 20260508191347 | 49 | 234 | 0.0 | 0.9 | 0.00 | 0.00 | 0.00 | 80 | 1020.6 |
| 20260508190850 | 49 | 234 | 0.0 | 1.7 | 0.00 | 0.00 | 0.00 | 81 | 1020.6 |
| 20260508190326 | 49 | 234 | 0.0 | 1.7 | 0.00 | 0.00 | 0.00 | 81 | 1020.6 |
| 20260508185829 | 49 | 234 | 0.0 | 1.7 | 0.00 | 0.00 | 0.00 | 81 | 1020.5 |
| 20260508185309 | 49 | 234 | 0.0 | 1.7 | 0.00 | 0.00 | 0.00 | 82 | 1020.5 |
| 20260508184811 | 49 | 234 | 0.0 | 1.7 | 0.00 | 0.00 | 0.00 | 82 | 1020.5 |
| 20260508184245 | 49 | 234 | 0.0 | 1.7 | 0.00 | 0.00 | 0.00 | 83 | 1020.4 |
| 20260508184009 | 48 | 234 | 0.9 | 2.6 | 0.00 | 0.00 | 0.00 | 84 | 1020.4 |
| 20260508183241 | 48 | 234 | 0.9 | 2.6 | 0.00 | 0.00 | 0.00 | 84 | 1020.3 |
| 20260508182739 | 47 | 234 | 0.9 | 3.5 | 0.00 | 0.00 | 0.00 | 86 | 1020.3 |
| 20260508182237 | 47 | 234 | 0.9 | 3.5 | 0.00 | 0.00 | 0.00 | 86 | 1020.3 |
| 20260508181735 | 47 | 123 | 0.9 | 2.6 | 0.00 | 0.00 | 0.00 | 87 | 1020.4 |
| 20260508181238 | 47 | 123 | 0.0 | 2.6 | 0.00 | 0.00 | 0.00 | 88 | 1020.3 |
| 20260508180732 | 47 | 123 | 0.9 | 1.7 | 0.00 | 0.00 | 0.00 | 88 | 1020.3 |
| 20260508180231 | 47 | 123 | 0.9 | 1.7 | 0.00 | 0.00 | 0.00 | 89 | 1020.2 |
| 20260508175731 | 47 | 123 | 0.0 | 1.7 | 0.00 | 0.00 | 0.00 | 89 | 1020.3 |
| 20260508175228 | 47 | 123 | 0.0 | 2.6 | 0.00 | 0.00 | 0.00 | 89 | 1020.4 |
| 20260508174944 | 47 | 123 | 0.0 | 2.6 | 0.00 | 0.00 | 0.00 | 89 | 1020.4 |
| 20260508174227 | 47 | 123 | 0.0 | 1.7 | 0.00 | 0.00 | 0.00 | 89 | 1020.3 |
| 20260508173728 | 47 | 123 | 0.9 | 1.7 | 0.00 | 0.00 | 0.00 | 89 | 1020.4 |
| 20260508173202 | 47 | 123 | 0.9 | 1.7 | 0.00 | 0.00 | 0.00 | 89 | 1020.3 |
| 20260508172636 | 47 | 123 | 0.0 | 1.7 | 0.00 | 0.00 | 0.00 | 89 | 1020.3 |
| 20260508172111 | 47 | 123 | 0.0 | 0.9 | 0.00 | 0.00 | 0.00 | 89 | 1020.3 |
| 20260508171545 | 47 | 123 | 0.0 | 0.9 | 0.00 | 0.00 | 0.00 | 89 | 1020.3 |
| 20260508171237 | 47 | 123 | 0.0 | 0.9 | 0.00 | 0.00 | 0.00 | 89 | 1020.2 |
| 20260508170452 | 47 | 123 | 0.0 | 0.9 | 0.00 | 0.00 | 0.00 | 88 | 1020.2 |
| 20260508165928 | 47 | 123 | 0.0 | 0.9 | 0.00 | 0.00 | 0.00 | 89 | 1020.2 |
| 20260508165402 | 47 | 123 | 0.0 | 0.9 | 0.00 | 0.00 | 0.00 | 89 | 1020.2 |
| 20260508164838 | 47 | 123 | 0.0 | 0.9 | 0.00 | 0.00 | 0.00 | 88 | 1020.1 |
| 20260508164310 | 47 | 123 | 0.0 | 0.0 | 0.00 | 0.00 | 0.00 | 88 | 1020.2 |
| 20260508164011 | 47 | 123 | 0.0 | 0.0 | 0.00 | 0.00 | 0.00 | 88 | 1020.2 |
| 20260508163218 | 47 | 123 | 0.0 | 0.0 | 0.00 | 0.00 | 0.00 | 88 | 1020.2 |
| 20260508162653 | 47 | 123 | 0.0 | 0.0 | 0.00 | 0.00 | 0.00 | 88 | 1020.2 |
| 20260508162153 | 47 | 123 | 0.0 | 0.0 | 0.00 | 0.00 | 0.00 | 88 | 1020.1 |
| 20260508161652 | 47 | 123 | 0.0 | 0.0 | 0.00 | 0.00 | 0.00 | 88 | 1020.0 |
| 20260508161152 | 47 | 123 | 0.0 | 0.0 | 0.00 | 0.00 | 0.00 | 88 | 1020.0 |
| 20260508160646 | 47 | 123 | 0.0 | 0.0 | 0.00 | 0.00 | 0.00 | 88 | 1020.1 |
| 20260508160146 | 47 | 123 | 0.0 | 0.0 | 0.00 | 0.00 | 0.00 | 88 | 1020.1 |
| 20260508155638 | 47 | 123 | 0.0 | 0.0 | 0.00 | 0.00 | 0.00 | 88 | 1020.1 |
| 20260508155137 | 47 | 123 | 0.0 | 0.0 | 0.00 | 0.00 | 0.00 | 88 | 1020.2 |
| 20260508154630 | 47 | 123 | 0.0 | 0.0 | 0.00 | 0.00 | 0.00 | 88 | 1020.1 |
| 20260508154130 | 47 | 123 | 0.0 | 0.0 | 0.00 | 0.00 | 0.00 | 88 | 1020.1 |
| 20260508153630 | 48 | 123 | 0.0 | 0.0 | 0.00 | 0.00 | 0.00 | 88 | 1020.1 |
| 20260508153129 | 48 | 123 | 0.0 | 0.0 | 0.00 | 0.00 | 0.00 | 88 | 1020.1 |
| 20260508152626 | 48 | 123 | 0.0 | 0.0 | 0.00 | 0.00 | 0.00 | 88 | 1020.1 |
| 20260508152126 | 48 | 123 | 0.0 | 0.0 | 0.00 | 0.00 | 0.00 | 88 | 1020.1 |
| 20260508151624 | 48 | 123 | 0.0 | 0.0 | 0.00 | 0.00 | 0.00 | 88 | 1020.0 |